Temperature
18 18 18 18 18 18 18 18 18 18 18 18 18 18 18 18 18 18 18 18 18 18 18 17 17 17 17 17 17 17 17 17 17 17 17 16 16 16 16 16 16 16 16
18 18 18 18 18 18 18 18 18 18 18 18 18 18 18 18 18 18 18 18 18 18 18 17 17 17 17 17 17 17 17 17 17 17 16 16 16 16 16 16 16 16 16
18 18 18 18 18 18 18 18 18 18 18 18 18 18 18 18 18 18 17 17 17 17 17 17 17 17 17 17 17 17 17 17 17 16 16 16 16 16 16 16 16 16 16
18 18 18 18 18 18 18 18 18 18 18 18 18 18 18 18 18 18 18 17 17 17 17 17 17 17 17 17 17 17 17 17 17 16 16 16 16 16 16 16 16 16 16
18 18 18 18 18 18 18 18 18 18 18 18 18 18 18 18 18 18 18 18 17 17 17 17 17 17 17 17 17 17 17 17 17 17 16 16 16 16 16 16 16 16 16
18 18 18 18 18 18 18 18 18 18 18 18 18 18 18 18 18 18 18 18 18 17 17 17 17 17 17 17 17 17 17 17 17 17 16 16 16 16 16 16 16 16 16
18 18 18 18 18 18 18 18 18 18 18 18 18 19 19 19 18 18 18 18 18 18 17 17 17 17 17 17 17 17 17 17 17 17 16 16 16 16 16 16 16 16 16
18 18 18 18 18 18 18 18 18 18 18 18 18 19 19 20 19 19 18 18 18 18 18 17 17 17 17 17 17 17 17 17 17 17 17 16 16 16 16 16 16 16 16
18 18 18 18 18 18 18 18 18 18 18 18 18 19 20 20 19 19 18 18 18 18 18 18 17 17 17 17 17 17 17 17 17 17 17 16 16 16 16 16 16 16 16
18 18 18 18 18 18 18 18 18 18 18 18 18 18 18 18 19 19 19 19 18 18 18 18 18 17 17 17 17 17 17 17 17 17 17 17 16 16 16 16 16 16 16
19 19 18 18 18 18 18 18 18 18 18 18 18 18 18 18 18 19 19 19 19 18 18 17 17 17 17 17 17 17 17 17 17 17 17 17 16 16 16 16 16 16 16
19 19 18 18 18 18 18 18 18 18 18 18 18 18 18 18 19 19 19 19 19 19 18 17 17 17 17 17 17 17 17 17 17 16 16 16 16 16 16 16 16 16 16
19 19 19 19 18 18 18 18 18 18 18 18 18 18 18 18 18 18 18 19 18 19 18 18 17 17 17 17 17 17 17 17 16 16 16 16 16 16 16 16 16 16 16
19 19 19 19 18 18 18 18 18 18 18 18 18 18 18 18 18 18 18 18 18 19 18 18 17 17 17 17 17 17 16 16 16 16 16 16 16 16 16 16 16 15 15
19 19 19 19 19 18 18 18 18 18 18 18 18 18 18 18 17 17 17 17 18 18 19 18 17 17 17 17 17 16 16 16 16 16 16 16 16 16 16 16 16 15 15
19 19 19 19 18 18 18 18 18 18 18 18 18 18 18 17 17 17 17 17 17 17 18 18 17 17 16 16 16 16 16 16 16 16 16 16 16 16 16 15 15 15 15
19 19 19 18 18 18 18 18 18 18 18 17 17 17 17 17 17 17 17 17 17 17 17 17 17 16 16 16 16 16 16 16 16 16 16 16 16 15 15 15 15 15 15
19 19 19 18 18 18 18 18 18 18 17 17 17 17 17 17 17 17 17 17 17 17 17 16 16 16 16 16 16 16 15 16 15 15 15 15 15 15 15 15 15 15 15
19 19 18 18 18 18 18 18 18 18 17 17 17 17 17 17 16 16 16 16 16 16 16 16 16 16 16 16 15 15 15 15 15 15 15 15 15 15 15 15 15 14 14
19 19 18 18 18 18 18 18 17 17 17 17 17 17 17 16 16 16 16 16 16 16 16 16 16 16 16 15 15 15 15 15 15 15 15 14 15 15 15 14 14 14 14
18 18 18 18 18 18 18 18 17 17 17 17 17 16 16 16 16 16 16 16 16 16 16 16 16 16 16 15 15 15 15 15 15 14 14 14 14 14 14 14 14 14 14
18 18 18 18 18 17 18 17 17 17 17 17 16 16 16 16 16 16 16 16 16 15 15 15 15 15 14 14 14 14 14 14 14 14 14 14 14 14 14 14 14 14 13
18 18 18 17 17 17 17 17 17 17 17 16 16 16 16 16 16 15 16 16 16 15 15 15 15 14 14 14 14 14 14 14 14 14 14 14 14 14 13 13 13 13 13
17 17 17 17 17 17 17 17 17 16 16 16 16 16 15 15 15 15 15 14 14 15 15 14 14 14 14 14 14 13 13 13 14 14 13 13 13 13 13 13 13 13 13
17 17 17 17 16 17 16 16 16 16 16 16 16 15 15 15 15 15 14 14 14 14 14 14 14 14 14 14 14 13 13 13 14 14 13 13 13 13 13 13 13 13 13
17 17 16 16 16 16 16 16 16 16 15 15 15 15 15 15 14 14 14 13 13 13 13 13 13 13 13 13 13 13 13 13 13 13 13 13 13 12 12 13 12 12 12
Wind_Speed
4 4 4 3 4 4 4 4 4 4 3 4 3 3 3 3 2 3 6 9 8 8 8 7 7 7 7 7 7 8 8 7 7 8 8 8 8 8 9 9 9 10 11
4 3 3 3 3 3 3 3 4 3 2 3 3 3 2 2 3 2 5 8 9 8 7 7 7 7 7 7 7 8 8 8 8 8 9 9 8 8 9 9 10 10 10
3 3 3 2 3 3 3 3 3 2 2 3 3 3 2 2 2 2 2 3 6 9 8 7 7 6 7 7 7 8 8 8 8 8 9 9 9 9 9 9 10 10 10
2 2 2 2 2 2 3 2 2 2 2 2 2 1 2 2 2 2 2 3 3 4 8 9 8 8 7 7 7 8 8 9 9 9 10 10 10 10 10 10 10 10 10
2 2 1 2 1 1 1 1 2 1 1 1 1 2 1 2 2 2 2 2 2 2 3 8 9 8 8 8 8 7 8 9 10 10 11 11 11 11 12 11 11 11 11
2 1 2 1 1 1 1 1 1 1 1 0 0 1 1 2 2 2 2 2 3 3 3 3 6 8 10 9 8 8 8 8 10 11 11 12 12 12 12 12 12 12 12
3 2 1 2 1 1 1 1 1 2 1 1 1 1 2 3 2 2 2 2 2 3 3 3 4 4 5 10 10 9 9 9 9 10 11 12 12 13 13 13 13 13 14
3 3 2 2 2 2 2 1 1 1 1 1 1 1 1 2 3 2 2 3 2 3 3 4 4 4 5 4 5 9 9 9 8 9 10 11 11 12 12 13 14 14 15
3 3 3 3 2 3 2 2 2 2 1 1 1 2 1 1 1 2 1 1 2 2 3 3 4 5 6 5 5 7 8 8 8 8 7 7 8 9 10 11 12 13 14
3 3 3 3 3 2 2 3 2 2 3 2 2 1 2 2 2 1 2 1 2 2 2 3 2 3 5 5 4 2 5 7 7 7 7 6 7 8 10 11 12 12 13
3 3 3 3 3 3 2 2 2 3 3 3 2 2 2 2 3 3 2 2 2 2 1 2 2 3 3 4 4 3 4 5 6 6 7 7 7 8 9 9 10 11 11
3 3 3 3 3 2 3 3 3 4 3 3 3 3 3 2 2 3 4 4 3 2 1 2 2 2 3 3 3 1 4 5 5 6 6 7 7 7 8 8 9 9 9
3 3 2 2 2 3 3 3 4 3 4 4 4 3 3 3 3 3 4 4 4 3 2 3 2 2 2 2 2 3 5 5 5 5 6 6 6 5 6 6 7 7 7
2 3 3 3 3 3 3 4 4 4 3 4 4 4 4 3 3 4 4 5 5 4 3 2 2 2 2 3 1 4 3 6 5 5 5 6 6 6 5 6 7 7 7
3 3 3 3 3 3 3 4 3 3 3 4 4 4 4 3 3 3 4 4 5 5 4 2 2 2 3 2 1 3 3 4 6 6 5 5 5 5 5 6 6 6 6
3 3 4 3 3 3 4 4 3 3 4 3 3 3 4 3 3 3 4 4 4 5 5 3 3 3 2 3 2 3 4 5 8 7 6 6 5 5 5 5 6 6 6
4 4 4 4 4 3 4 4 4 4 4 4 3 4 4 4 4 3 3 4 4 4 5 5 4 3 3 4 3 4 5 5 5 8 7 7 6 6 6 6 6 6 6
5 5 5 4 4 4 4 4 5 5 5 4 4 4 4 3 4 4 4 4 4 4 5 6 5 4 4 4 4 5 5 5 5 7 9 8 8 7 7 6 6 6 6
5 5 5 5 4 4 4 4 4 4 5 4 4 4 4 4 4 4 5 5 5 5 5 6 6 4 4 4 4 5 5 5 6 6 9 10 10 9 8 8 7 7 7
6 5 5 5 5 4 4 4 4 4 4 4 4 4 4 4 5 5 5 5 5 6 6 7 6 5 4 4 4 5 4 4 5 5 5 6 9 12 11 10 9 8 8
6 6 5 5 5 5 4 4 4 4 4 4 4 4 4 3 4 5 5 5 5 6 6 6 6 6 5 4 4 5 6 5 5 5 5 5 5 6 7 10 10 9 8
5 5 6 5 5 4 3 3 4 4 4 4 4 4 4 2 2 3 4 4 5 6 6 6 6 6 6 5 5 6 6 6 6 4 5 6 5 5 5 5 6 8 9
6 6 6 5 5 4 4 4 4 4 4 4 4 4 4 3 3 4 3 4 4 5 6 7 7 7 6 5 6 7 6 7 7 5 5 7 5 6 5 4 8 9 9
6 5 5 5 5 4 6 6 6 5 5 4 4 4 4 4 4 4 4 4 5 4 4 5 6 7 6 5 6 7 8 7 7 5 5 6 5 6 5 3 9 10 9
5 5 5 5 5 4 5 7 6 5 5 5 5 5 5 4 2 3 4 4 5 5 3 2 3 5 5 5 5 6 6 6 7 5 3 5 5 5 5 5 6 11 11
5 5 5 5 5 4 5 6 7 5 5 5 4 4 3 3 2 3 4 4 5 5 5 3 3 4 4 4 5 5 6 6 6 5 2 4 4 4 4 4 3 5 7
Wind_Direction
89 88 85 93 104 113 130 129 123 126 134 141 137 134 133 120 124 134 140 153 164 172 178 183 184 188 191 195 199 203 207 211 212 216 215 214 215 217 218 217 215 216 216
94 99 104 93 94 97 94 115 124 130 122 110 121 126 132 128 118 141 149 154 165 175 182 188 195 199 200 202 204 209 214 218 219 218 214 214 219 222 221 222 222 220 220
109 107 97 106 95 102 112 118 110 116 127 128 126 130 144 141 137 149 159 167 167 175 184 193 201 208 209 213 214 218 220 222 225 224 220 219 220 222 223 224 224 222 221
130 126 94 91 98 115 116 121 108 98 97 117 123 137 149 155 167 176 173 178 192 182 178 187 201 213 219 223 224 227 227 226 229 230 226 223 223 225 225 226 225 224 223
159 153 105 89 130 113 112 131 111 101 117 125 154 162 188 189 189 190 189 194 188 205 205 177 193 211 222 227 231 234 236 234 234 234 232 230 228 229 228 227 227 227 226
177 194 159 155 189 147 143 110 139 154 192 208 241 116 220 204 217 214 225 210 206 217 233 221 203 205 211 223 232 236 240 243 239 236 235 236 235 234 230 229 229 229 228
183 207 208 176 206 167 183 174 185 174 174 161 195 196 188 201 211 222 230 237 221 222 233 235 243 246 209 206 222 232 239 245 244 241 241 240 237 235 232 231 231 231 230
198 196 207 220 199 193 192 201 208 243 181 172 275 277 225 183 200 199 209 220 239 228 230 227 233 243 263 245 205 215 235 241 243 246 247 243 238 239 238 236 234 234 232
206 213 206 222 222 224 190 202 206 219 233 224 269 294 302 357 313 173 205 228 246 252 243 228 226 232 243 252 248 209 220 230 240 249 253 247 240 238 238 239 237 236 235
217 212 212 214 228 230 201 214 188 220 233 234 211 256 302 330 298 267 208 198 217 238 260 260 244 229 237 245 241 247 213 225 234 241 247 243 238 240 242 241 239 237 235
216 215 214 211 213 219 212 241 233 237 236 256 257 244 248 241 255 281 290 291 262 246 255 267 268 252 238 248 251 230 202 224 235 240 244 241 239 242 245 246 244 242 239
203 208 208 207 210 210 205 221 233 231 240 257 268 263 256 262 268 276 282 280 291 293 278 273 269 257 245 253 258 203 211 220 230 237 240 244 243 245 249 250 249 244 240
201 187 207 209 214 209 215 222 224 237 237 239 248 260 263 267 279 283 284 293 297 290 275 253 263 265 265 267 256 208 206 206 221 233 241 245 245 247 248 248 250 247 243
206 179 194 196 209 216 217 217 229 227 227 234 242 253 265 266 267 270 278 289 291 289 264 266 278 281 291 277 266 222 221 193 214 229 241 244 243 240 241 241 242 242 242
207 187 195 198 204 211 221 223 230 234 230 237 241 237 255 265 264 268 266 269 280 289 290 249 265 272 274 270 216 244 240 188 206 217 231 239 237 239 240 236 236 236 237
213 199 203 207 214 216 216 222 223 221 227 233 244 262 266 270 273 267 269 274 272 277 285 298 282 283 288 275 198 242 239 200 205 210 222 228 229 230 229 230 230 230 230
203 208 209 213 218 217 214 216 227 222 228 235 239 240 252 272 277 277 275 272 272 273 275 286 296 288 267 275 272 257 243 237 215 198 212 222 225 225 223 224 226 224 222
206 205 208 211 216 216 219 223 232 230 230 232 238 243 253 254 260 272 275 274 274 276 278 285 289 286 273 264 267 265 260 249 249 193 200 213 218 219 219 219 217 217 218
209 212 215 218 222 222 222 225 230 232 232 234 237 242 249 256 262 271 274 277 277 276 277 278 281 287 283 275 268 261 261 264 260 215 201 208 211 212 214 214 215 219 222
208 210 212 215 219 222 222 220 217 224 230 234 242 248 250 255 261 267 267 272 278 279 273 273 276 277 277 275 271 273 269 258 263 259 240 228 212 210 211 210 212 218 222
213 211 213 213 212 216 222 216 216 220 226 233 242 252 255 267 297 284 282 280 279 276 276 275 277 280 281 286 281 279 279 280 269 264 263 251 227 227 216 207 210 214 219
217 216 217 215 216 225 179 189 217 212 219 230 238 250 252 237 247 247 271 284 290 279 284 284 279 280 282 283 286 282 284 285 283 272 274 273 261 252 240 229 185 194 212
213 216 216 217 220 220 166 179 209 215 223 233 238 247 257 255 252 265 248 234 249 253 265 275 283 285 284 288 290 280 277 279 283 287 278 274 268 261 251 215 169 188 205
215 219 219 220 222 214 180 188 204 216 229 231 233 240 248 258 263 272 273 281 281 278 268 264 271 280 287 292 278 275 276 270 267 264 266 273 271 269 266 229 175 190 204
213 218 221 222 221 210 188 192 205 217 223 226 229 233 238 243 259 277 267 276 285 290 276 253 260 269 290 292 288 279 277 273 276 274 261 272 278 279 272 252 198 192 204
212 221 221 219 217 211 182 185 206 220 222 226 225 226 221 229 212 233 249 261 274 287 294 290 259 249 261 259 247 268 280 275 280 281 283 268 274 282 276 259 245 219 220
Height
1536 1537 1538 1539 1541 1542 1543 1543 1545 1546 1547 1548 1549 1550 1551 1552 1553 1553 1553 1553 1553 1553 1554 1554 1554 1555 1556 1556 1556 1557 1557 1558 1558 1559 1559 1560 1560 1560 1561 1561 1562 1562 1563
1538 1538 1539 1540 1542 1543 1544 1544 1545 1546 1548 1548 1549 1550 1551 1552 1552 1553 1553 1553 1553 1553 1553 1554 1554 1554 1555 1555 1555 1556 1556 1556 1557 1557 1558 1558 1558 1559 1559 1559 1560 1560 1561
1539 1540 1541 1542 1543 1544 1545 1545 1546 1547 1548 1549 1549 1550 1551 1551 1552 1552 1553 1553 1553 1553 1553 1553 1553 1553 1554 1554 1554 1554 1555 1555 1555 1555 1556 1556 1556 1556 1557 1557 1557 1558 1558
1541 1541 1542 1543 1544 1545 1546 1546 1547 1547 1548 1549 1550 1550 1551 1551 1551 1552 1552 1552 1553 1553 1552 1552 1552 1552 1552 1552 1553 1553 1553 1553 1553 1553 1553 1554 1554 1554 1554 1555 1555 1555 1556
1542 1542 1543 1543 1544 1545 1546 1547 1547 1548 1548 1549 1550 1550 1550 1551 1551 1552 1552 1552 1552 1552 1552 1551 1551 1551 1551 1551 1551 1551 1551 1551 1551 1551 1551 1551 1551 1551 1552 1552 1552 1553 1553
1542 1543 1544 1543 1545 1546 1546 1546 1546 1547 1548 1548 1549 1550 1550 1550 1551 1551 1551 1551 1551 1551 1551 1551 1550 1550 1549 1549 1549 1549 1549 1549 1548 1548 1548 1548 1548 1549 1549 1549 1549 1549 1550
1543 1543 1544 1544 1545 1546 1546 1546 1547 1547 1548 1548 1549 1549 1549 1549 1550 1550 1550 1550 1550 1550 1549 1549 1549 1549 1549 1547 1547 1547 1546 1546 1546 1546 1546 1546 1546 1546 1546 1546 1546 1546 1547
1542 1543 1543 1544 1544 1545 1545 1546 1546 1547 1548 1548 1549 1549 1549 1551 1549 1550 1549 1549 1549 1549 1548 1548 1547 1546 1547 1547 1545 1544 1544 1544 1543 1543 1543 1543 1543 1543 1543 1543 1543 1543 1544
1542 1542 1543 1543 1544 1545 1545 1545 1545 1546 1547 1548 1548 1549 1548 1548 1549 1549 1548 1548 1547 1547 1547 1547 1546 1545 1544 1544 1544 1543 1542 1541 1541 1540 1540 1540 1539 1539 1539 1539 1540 1540 1540
1541 1542 1542 1542 1543 1544 1544 1544 1545 1545 1546 1547 1547 1547 1548 1548 1548 1548 1548 1547 1546 1546 1545 1545 1545 1544 1543 1542 1541 1540 1540 1539 1538 1538 1537 1537 1536 1536 1536 1536 1536 1536 1536
1540 1541 1541 1541 1541 1542 1543 1543 1544 1544 1545 1546 1546 1547 1546 1546 1546 1546 1546 1546 1546 1545 1544 1543 1542 1542 1541 1540 1539 1538 1537 1537 1536 1535 1535 1534 1534 1533 1533 1533 1533 1532 1533
1539 1539 1540 1540 1540 1541 1541 1542 1542 1543 1543 1544 1544 1545 1545 1545 1545 1545 1544 1544 1543 1543 1542 1541 1541 1540 1539 1538 1537 1536 1535 1534 1533 1533 1532 1531 1531 1530 1530 1529 1529 1529 1529
1538 1538 1538 1538 1538 1539 1539 1540 1540 1541 1542 1542 1542 1543 1543 1543 1543 1543 1543 1542 1541 1541 1540 1540 1538 1538 1537 1536 1535 1533 1532 1531 1531 1530 1529 1528 1528 1527 1527 1526 1526 1526 1526
1536 1536 1536 1536 1537 1537 1538 1538 1539 1539 1539 1540 1541 1541 1541 1541 1541 1541 1541 1540 1539 1539 1538 1538 1537 1535 1534 1533 1532 1530 1530 1528 1528 1527 1526 1525 1525 1524 1523 1523 1523 1522 1522
1535 1534 1534 1535 1535 1535 1536 1536 1537 1537 1538 1538 1539 1539 1539 1540 1539 1539 1539 1538 1538 1537 1536 1535 1534 1533 1531 1530 1529 1528 1527 1526 1525 1524 1523 1522 1522 1521 1520 1520 1519 1519 1519
1532 1532 1533 1533 1533 1533 1534 1534 1535 1535 1536 1536 1536 1536 1536 1537 1537 1537 1537 1536 1536 1535 1534 1533 1532 1531 1529 1528 1526 1525 1524 1522 1521 1521 1520 1519 1518 1518 1517 1516 1516 1516 1515
1529 1530 1530 1530 1531 1531 1532 1532 1533 1533 1533 1534 1534 1534 1534 1534 1534 1535 1534 1534 1533 1532 1531 1530 1530 1528 1526 1524 1523 1522 1521 1520 1519 1517 1517 1516 1515 1514 1513 1513 1512 1512 1512
1527 1527 1528 1528 1528 1529 1529 1530 1530 1531 1531 1531 1532 1532 1532 1532 1531 1531 1531 1531 1530 1529 1529 1527 1526 1525 1523 1522 1520 1519 1518 1517 1516 1514 1513 1512 1511 1511 1510 1509 1509 1509 1508
1524 1525 1525 1525 1526 1526 1527 1527 1527 1528 1528 1528 1529 1529 1529 1529 1528 1528 1528 1528 1528 1527 1525 1524 1523 1522 1520 1519 1517 1516 1515 1513 1513 1512 1510 1509 1508 1507 1506 1506 1505 1505 1505
1521 1521 1522 1523 1523 1524 1524 1524 1524 1525 1525 1525 1526 1526 1526 1526 1526 1525 1525 1524 1524 1523 1522 1521 1520 1519 1517 1516 1514 1514 1512 1511 1510 1509 1507 1506 1504 1503 1503 1502 1502 1501 1501
1518 1519 1519 1519 1520 1521 1521 1521 1521 1522 1522 1522 1522 1523 1523 1523 1522 1522 1523 1522 1521 1520 1519 1518 1517 1515 1514 1512 1512 1510 1510 1508 1507 1506 1504 1503 1502 1500 1499 1498 1498 1497 1497
1515 1515 1516 1516 1516 1518 1518 1518 1518 1519 1519 1519 1519 1519 1520 1519 1519 1518 1518 1517 1517 1516 1515 1514 1513 1512 1510 1509 1508 1507 1506 1505 1503 1503 1501 1499 1499 1497 1496 1495 1494 1494 1493
1511 1511 1512 1512 1513 1514 1514 1515 1515 1515 1516 1516 1516 1516 1517 1517 1515 1515 1514 1513 1512 1511 1511 1510 1509 1508 1507 1506 1504 1503 1502 1501 1499 1498 1497 1495 1495 1494 1493 1492 1491 1490 1490
1507 1507 1508 1508 1509 1510 1510 1511 1512 1512 1512 1512 1512 1512 1512 1512 1511 1511 1510 1509 1508 1507 1506 1506 1504 1503 1503 1502 1500 1500 1498 1496 1495 1494 1493 1492 1491 1490 1489 1488 1487 1486 1486
1504 1504 1505 1505 1505 1506 1506 1507 1508 1508 1508 1508 1508 1508 1507 1507 1507 1506 1506 1505 1504 1503 1503 1501 1500 1499 1498 1497 1496 1496 1494 1494 1492 1490 1489 1488 1487 1486 1485 1484 1483 1482 1482
1500 1501 1501 1501 1501 1501 1502 1503 1503 1504 1504 1504 1504 1503 1503 1502 1502 1502 1501 1501 1499 1499 1499 1498 1497 1495 1494 1493 1492 1491 1491 1490 1488 1487 1485 1484 1483 1482 1481 1481 1480 1479 1478